Regional Weather Roundup
Issued by NWS

Home | Current Version | Previous Version | Text Only | Print | Product List | Glossary On
Versions: 1 2 3 4 5 6 7 8 9 10 11 12 13 14 15 16 17 18 19 20 21 22 23 24 25 26 27 28 29 30 31 32 33 34 35 36 37 38 39 40 41 42 43 44 45 46 47 48 49 50
000
ASUS42 KFFC 140810
RWRGA
WEATHER ROUNDUP FOR GEORGIA
NATIONAL WEATHER SERVICE PEACHTREE CITY GA
300 AM EST THU DEC 14 2017

NOTE: "FAIR" INDICATES FEW OR NO CLOUDS BELOW 12,000 FEET WITH NO
SIGNIFICANT WEATHER AND/OR OBSTRUCTIONS TO VISIBILITY.

* = USE WITH CAUTION. THE STATIONS MARKED WITH AN ASTERISK MAY NOT
REPORT WEATHER SUCH AS PRECIPITATION, FOG, OR THUNDER AND ARE NOT
QUALITY CONTROLLED BY NWS.

THE REMARK "TC" DENOTES TEMPERATURE READING IN DEGREES CELSIUS.

GAZ001>058-140900-
NORTH GEORGIA

CITY           SKY/WX    TMP DP  RH WIND       PRES   REMARKS
ATLANTA        PTCLDY    41  27  57 W9        29.85S
ATHENS         CLEAR     34  21  59 W5        29.83R WCI  30
CHAMBLEE       CLEAR     38  25  59 W9        29.84S WCI  31
PEACHTREE CITY CLEAR     42  29  59 W6        29.89S
ROME           CLEAR     30  25  81 CALM      29.86R
WEST ATLANTA   CLEAR     37  25  61 SW5       29.86S WCI  33
GAINESVILLE    CLEAR     39  23  52 W13G21    29.82R WCI  31
CARTERSVILLE   CLEAR     28  25  88 CALM      29.87R


CITY           SKY/WX    TMP DP  RH WIND       PRES   REMARKS
DALTON*        CLEAR     32  27  80 CALM      29.87R
LAWRENCEVILLE* CLEAR     37  23  56 W5        29.83S WCI  33
MARIETTA       CLEAR     35  24  65 W6        29.84R WCI  30
KENNESAW*      CLEAR     39  26  59 W9        29.86R WCI  33
CANTON*        CLEAR     36  27  69 SE5       29.85R WCI  32
$$

GAZ059>098-102>109-140900-
CENTRAL GEORGIA

CITY           SKY/WX    TMP DP  RH WIND       PRES   REMARKS
AUGUSTA-BUSH   CLEAR     42  23  46 SW10      29.86S
AUGUSTA-DANIEL CLEAR     44  23  43 SW8G16    29.85S
COLUMBUS       CLEAR     37  28  70 CALM      29.93F
MACON          CLEAR     41  29  62 W9        29.91F
ROBINS AFB     CLEAR     43  28  55 W8        29.90F


CITY           SKY/WX    TMP DP  RH WIND       PRES   REMARKS
LAGRANGE*      CLEAR     35  32  87 CALM      29.92R
SYLVANIA*      CLEAR     43  28  56 W5        29.92S
MILLEDGEVILLE* CLEAR     45  32  61 W7        29.87F
$$

GAZ099>101-110>166-140900-
SOUTH GEORGIA

CITY           SKY/WX    TMP DP  RH WIND       PRES   REMARKS
SAVANNAH       CLEAR     40  29  64 SW7       29.95R
VALDOSTA       PTCLDY    38  36  92 CALM      29.98S
ALMA           CLOUDY    37  32  82 CALM      29.96S
ST SIMONS      PTCLDY    45  36  70 SW10      29.97R
FT STEWART     CLEAR     37  30  76 CALM      29.93S
ALBANY         CLOUDY    37  34  89 S3        30.00R
HUNTER AFB     CLEAR     41  30  64 SW10      29.93S
MOODY AFB      PTCLDY    46  40  78 SW6       29.96R
BRUNSWICK      PTCLDY    43  34  70 W7        29.98R


CITY           SKY/WX    TMP DP  RH WIND       PRES   REMARKS
BAINBRIDGE*    CLOUDY    43  43 100 CALM      29.99R
MOULTRIE*      CLOUDY    43  37  81 CALM      29.99R
VIDALIA*       CLEAR     41  32  70 SW6       29.94S
WAYCROSS*      CLOUDY    42  35  75 SW5       29.98R
DOUGLAS*       CLOUDY    37  34  87 W5        29.98S WCI  34
$$



USA.gov is the U.S. government's official web portal to all federal, state and local government web resources and services.